When you browse on this site, cookies collect data to enhance your experience and personalize the content and advertising you see.
Visit our Privacy Policy to learn more. By continuing to use the site, you agree to this use of cookies and data.

Stündliche Wetter Rozogi

Heute, 4 Juli, Samstag

Zeit Temperatur Niederschläge Wind Luftdruck Luftfeuchtigkeit
00:00 +14°C° 0 mm 1 m/S 749 mmHg 94%
01:00 +14°C° 0 mm 1 m/S 750 mmHg 95%
02:00 +14°C° 0 mm 1 m/S 750 mmHg 94%
03:00 +13°C° 0 mm 1 m/S 750 mmHg 93%
04:00 +13°C° 0 mm 1 m/S 750 mmHg 92%
05:00 +15°C° 0 mm 1 m/S 750 mmHg 87%
06:00 +18°C° 0 mm 1 m/S 750 mmHg 81%
07:00 +18°C° 0 mm 2 m/S 750 mmHg 75%
08:00 +20°C° 0 mm 2 m/S 750 mmHg 69%
09:00 +21°C° 0 mm 3 m/S 750 mmHg 63%
10:00 +24°C° 0 mm 3 m/S 750 mmHg 57%
11:00 +23°C° 0 mm 4 m/S 750 mmHg 56%
12:00 +25°C° 0 mm 4 m/S 750 mmHg 55%
13:00 +25°C° 0 mm 4 m/S 750 mmHg 54%
14:00 +25°C° 0 mm 4 m/S 749 mmHg 55%
15:00 +25°C° 0 mm 4 m/S 749 mmHg 56%
16:00 +25°C° 0 mm 4 m/S 748 mmHg 58%
17:00 +23°C° 0 mm 4 m/S 748 mmHg 64%
18:00 +22°C° 0 mm 3 m/S 748 mmHg 70%
19:00 +21°C° 0 mm 2 m/S 748 mmHg 76%
20:00 +20°C° 0 mm 3 m/S 748 mmHg 79%
21:00 +19°C° 0 mm 3 m/S 748 mmHg 82%
22:00 +18°C° 0 mm 3 m/S 748 mmHg 85%
23:00 +18°C° 0 mm 3 m/S 748 mmHg 85%

Morgen, 5 Juli, Sonntag

Zeit Temperatur Niederschläge Wind Luftdruck Luftfeuchtigkeit
00:00 +17°C° 0 mm 3 m/S 748 mmHg 84%
01:00 +17°C° 0 mm 3 m/S 748 mmHg 84%
02:00 +17°C° 0 mm 3 m/S 748 mmHg 83%
03:00 +17°C° 0 mm 3 m/S 747 mmHg 83%
04:00 +17°C° 0 mm 3 m/S 747 mmHg 82%
05:00 +18°C° 0 mm 3 m/S 747 mmHg 80%
06:00 +19°C° 0 mm 4 m/S 747 mmHg 77%
07:00 +20°C° 0 mm 4 m/S 747 mmHg 75%
08:00 +22°C° 0 mm 5 m/S 747 mmHg 71%
09:00 +23°C° 0 mm 5 m/S 747 mmHg 66%
10:00 +26°C° 0 mm 6 m/S 747 mmHg 62%
11:00 +26°C° 0.1 mm 6 m/S 747 mmHg 63%
12:00 +26°C° 0.1 mm 6 m/S 746 mmHg 63%
13:00 +26°C° 0.1 mm 6 m/S 746 mmHg 64%
14:00 +26°C° 0.1 mm 6 m/S 746 mmHg 66%
15:00 +26°C° 0.1 mm 6 m/S 746 mmHg 67%
16:00 +26°C° 0.1 mm 6 m/S 745 mmHg 69%
17:00 +25°C° 0.1 mm 5 m/S 745 mmHg 74%
18:00 +23°C° 0.1 mm 4 m/S 745 mmHg 79%
19:00 +22°C° 0.1 mm 4 m/S 745 mmHg 84%
20:00 +22°C° 0 mm 4 m/S 745 mmHg 86%
21:00 +21°C° 0 mm 4 m/S 745 mmHg 87%
22:00 +20°C° 0 mm 4 m/S 745 mmHg 89%
23:00 +20°C° 0 mm 4 m/S 745 mmHg 90%

übermorgen, 6 Juli, Montag

Zeit Temperatur Niederschläge Wind Luftdruck Luftfeuchtigkeit
00:00 +20°C° 0 mm 3 m/S 745 mmHg 90%
01:00 +19°C° 0 mm 3 m/S 744 mmHg 91%
02:00 +19°C° 0 mm 3 m/S 744 mmHg 91%
03:00 +19°C° 0 mm 3 m/S 744 mmHg 91%
04:00 +19°C° 0 mm 3 m/S 744 mmHg 91%
05:00 +19°C° 0 mm 3 m/S 744 mmHg 88%
06:00 +19°C° 0 mm 3 m/S 744 mmHg 86%
07:00 +20°C° 0 mm 3 m/S 744 mmHg 83%
08:00 +20°C° 0 mm 3 m/S 744 mmHg 82%
09:00 +20°C° 0 mm 3 m/S 744 mmHg 81%
10:00 +20°C° 0 mm 3 m/S 744 mmHg 80%
11:00 +21°C° 0.2 mm 4 m/S 744 mmHg 76%
12:00 +22°C° 0.2 mm 5 m/S 744 mmHg 71%
13:00 +22°C° 0.2 mm 6 m/S 743 mmHg 67%
14:00 +23°C° 0 mm 6 m/S 744 mmHg 63%
15:00 +23°C° 0 mm 5 m/S 744 mmHg 59%
16:00 +23°C° 0 mm 5 m/S 744 mmHg 55%
17:00 +22°C° 0 mm 4 m/S 744 mmHg 59%
18:00 +20°C° 0 mm 4 m/S 744 mmHg 64%
19:00 +19°C° 0 mm 3 m/S 744 mmHg 69%
20:00 +17°C° 0 mm 3 m/S 744 mmHg 70%
21:00 +16°C° 0 mm 2 m/S 745 mmHg 72%
22:00 +14°C° 0 mm 2 m/S 745 mmHg 74%
23:00 +14°C° 0 mm 2 m/S 745 mmHg 75%

7 Juli, Dienstag

Zeit Temperatur Niederschläge Wind Luftdruck Luftfeuchtigkeit
00:00 +13°C° 0 mm 2 m/S 745 mmHg 77%
01:00 +13°C° 0 mm 2 m/S 746 mmHg 78%
02:00 +13°C° 0 mm 2 m/S 746 mmHg 80%
03:00 +13°C° 0 mm 2 m/S 746 mmHg 82%
04:00 +12°C° 0 mm 2 m/S 746 mmHg 84%
05:00 +13°C° 0 mm 3 m/S 746 mmHg 80%
06:00 +14°C° 0 mm 4 m/S 746 mmHg 76%
07:00 +15°C° 0 mm 4 m/S 747 mmHg 72%
08:00 +17°C° 0 mm 4 m/S 747 mmHg 69%
09:00 +17°C° 0 mm 4 m/S 747 mmHg 66%
10:00 +18°C° 0 mm 4 m/S 747 mmHg 62%
11:00 +19°C° 0.2 mm 4 m/S 747 mmHg 61%
12:00 +19°C° 0.2 mm 5 m/S 747 mmHg 60%
13:00 +19°C° 0.2 mm 5 m/S 747 mmHg 58%
14:00 +19°C° 0.1 mm 5 m/S 747 mmHg 57%
15:00 +19°C° 0.1 mm 5 m/S 747 mmHg 56%
16:00 +17°C° 0.1 mm 6 m/S 748 mmHg 55%
17:00 +16°C° 0 mm 5 m/S 748 mmHg 61%
18:00 +15°C° 0 mm 4 m/S 748 mmHg 67%
19:00 +14°C° 0 mm 3 m/S 748 mmHg 73%
20:00 +14°C° 0 mm 2 m/S 748 mmHg 76%
21:00 +13°C° 0 mm 2 m/S 748 mmHg 80%
22:00 +10°C° 0 mm 2 m/S 748 mmHg 84%
23:00 +10°C° 0 mm 2 m/S 748 mmHg 87%

8 Juli, Mittwoch

Zeit Temperatur Niederschläge Wind Luftdruck Luftfeuchtigkeit
00:00 +10°C° 0 mm 2 m/S 748 mmHg 89%
01:00 +9°C° 0 mm 2 m/S 748 mmHg 91%
02:00 +9°C° 0 mm 3 m/S 748 mmHg 91%
03:00 +9°C° 0 mm 3 m/S 748 mmHg 91%
04:00 +9°C° 0 mm 3 m/S 748 mmHg 91%
05:00 +11°C° 0 mm 4 m/S 748 mmHg 83%
06:00 +13°C° 0 mm 5 m/S 748 mmHg 76%
07:00 +14°C° 0 mm 5 m/S 748 mmHg 69%
08:00 +15°C° 0.1 mm 6 m/S 748 mmHg 65%
09:00 +16°C° 0.1 mm 6 m/S 748 mmHg 61%
10:00 +17°C° 0.1 mm 6 m/S 748 mmHg 57%
11:00 +19°C° 0.1 mm 6 m/S 748 mmHg 55%
12:00 +19°C° 0.1 mm 6 m/S 748 mmHg 53%
13:00 +19°C° 0.1 mm 6 m/S 748 mmHg 51%
14:00 +19°C° 0 mm 6 m/S 748 mmHg 52%
15:00 +19°C° 0 mm 6 m/S 748 mmHg 53%
16:00 +19°C° 0 mm 6 m/S 748 mmHg 54%
17:00 +17°C° 0 mm 5 m/S 748 mmHg 61%
18:00 +17°C° 0 mm 4 m/S 748 mmHg 68%
19:00 +16°C° 0 mm 3 m/S 748 mmHg 75%
20:00 +15°C° 0 mm 2 m/S 748 mmHg 79%
21:00 +13°C° 0 mm 2 m/S 748 mmHg 82%
22:00 +12°C° 0 mm 2 m/S 748 mmHg 86%
23:00 +12°C° 0 mm 2 m/S 748 mmHg 83%

9 Juli, Donnerstag

Zeit Temperatur Niederschläge Wind Luftdruck Luftfeuchtigkeit
00:00 +13°C° 0 mm 2 m/S 748 mmHg 80%
01:00 +13°C° 0 mm 2 m/S 748 mmHg 77%
02:00 +13°C° 0.1 mm 2 m/S 748 mmHg 78%
03:00 +13°C° 0.1 mm 3 m/S 748 mmHg 78%
04:00 +13°C° 0.1 mm 3 m/S 747 mmHg 79%
05:00 +13°C° 0.1 mm 3 m/S 747 mmHg 79%
06:00 +13°C° 0.1 mm 3 m/S 747 mmHg 79%
07:00 +14°C° 0.1 mm 3 m/S 747 mmHg 80%
08:00 +14°C° 0.1 mm 3 m/S 747 mmHg 82%
09:00 +14°C° 0.1 mm 3 m/S 747 mmHg 84%
10:00 +16°C° 0.1 mm 3 m/S 747 mmHg 86%
11:00 +17°C° 0.2 mm 4 m/S 747 mmHg 81%
12:00 +19°C° 0.2 mm 4 m/S 747 mmHg 77%
13:00 +21°C° 0.2 mm 5 m/S 747 mmHg 72%
14:00 +21°C° 0.2 mm 5 m/S 747 mmHg 72%
15:00 +21°C° 0.2 mm 5 m/S 747 mmHg 72%
16:00 +21°C° 0.2 mm 5 m/S 747 mmHg 72%
17:00 +21°C° 0.1 mm 4 m/S 747 mmHg 76%
18:00 +20°C° 0.1 mm 3 m/S 747 mmHg 80%
19:00 +19°C° 0.1 mm 3 m/S 747 mmHg 85%
20:00 +18°C° 0 mm 2 m/S 747 mmHg 86%
21:00 +16°C° 0 mm 2 m/S 747 mmHg 88%
22:00 +15°C° 0 mm 2 m/S 748 mmHg 90%
23:00 +14°C° 0 mm 2 m/S 748 mmHg 89%
Mehr zeigen